Starlink 32229

operational
NORAD ID: 60436 Int'l Des: 2024-144 Owner: SPXS Country: US Constellation: starlink
LEOCIRCULAR

关于 Starlink 32229

正在加载描述...

实时位置

正在加载3D地球...

即将过境

高度历史

Altitude vs Time

uPlot chart will show altitude changes over time

两行轨道根数

1 60436U 24144M 25303.14636326 -.00002415 00000-0 -69430-4 0 9998
2 60436 53.1546 103.4056 0000444 258.8686 101.2265 15.30209500 69321
Epoch: Oct 30, 2025 • Age: 18 hours

当前状态

高度 493.2 km
速度 7.62 km/s
星下点 -52.73°S, 9.78°W
发射日期 Aug 12, 2024
运行时间 1.2 years
类型 internet

技术详情

分类 Payload
质量 730.00 kg
干质量 700.00 kg
总质量 730.00 kg
长度 0.30 m
直径 4.10 m
跨度 29.00 m
形状 Box + pan
制造商 SPXS
平台类型 Starlink V2M
阶段状态 In Orbit
所有者/国家 SPXS/US

大型星座

Loading constellations...